Location: Ay?beleni
(36.6500°N, 30.3000°E)
Time: 01:15:12
(UTC+00:00)

CZ-2C R/B - Pass Details

Date: 09 April 2020
Orbit: 705 x 907 km, 98.1° (Epoch: 25 May)

Event Time Altitude Azimuth Distance (km) Brightness Sun altitude
Rises 16:48:47 0° 138° (SE) 3,172 5.7 -4.9°
Reaches altitude 10° 16:51:22 10° 127° (SE) 2,227 4.8 -5.4°
Maximum altitude 16:55:27 28° 70° (ENE) 1,345 3.9 -6.2°
Drops below altitude 10° 16:59:27 10° 12° (NNE) 2,187 5.4 -6.9°
Sets 17:01:57 0° 1° (N) 3,104 6.4 -7.4°
